SCP
0 0 0 0 0 0 0 0 0 0 0 0 0 0 0 0 0 0 0 0 0 0 0 0 0 0 0 0 0 0 0 0 0 0 0 0 0 0 0 0 0 0 0
0 0 0 0 0 0 0 0 0 0 0 0 0 0 0 0 0 0 0 0 0 0 0 0 0 0 0 0 0 0 0 0 0 0 0 0 0 0 0 0 0 0 0
0 0 0 0 0 0 0 0 0 0 0 0 0 0 0 0 0 0 0 0 0 0 0 0 0 0 0 0 0 0 0 0 0 0 0 0 0 0 0 0 0 0 0
0 0 0 0 0 0 0 0 0 0 0 0 0 0 0 0 0 0 0 0 0 0 0 0 0 0 0 0 0 0 0 0 0 0 0 0 0 0 0 0 0 0 0
0 0 0 0 0 0 0 0 0 0 0 0 0 0 0 0 0 0 0 0 0 0 0 0 0 0 0 0 0 0 0 0 0 0 0 0 0 0 0 0 0 0 0
0 0 0 0 0 0 0 0 0 0 0 0 0 0 0 0 0 0 0 0 0 0 0 0 0 0 0 0 0 0 0 0 0 0 0 0 0 0 0 0 0 0 0
0 0 0 0 0 0 0 0 0 0 0 0 0 0 0 0 0 0 0 0 0 0 0 0 0 0 0 0 0 0 0 0 0 0 0 0 0 0 0 0 0 0 0
0 0 0 0 0 0 0 0 0 0 0 0 0 0 0 0 0 0 0 0 0 0 0 0 0 0 0 0 0 0 0 0 0 0 0 0 0 0 0 0 0 0 0
0 0 0 0 0 0 0 0 0 0 0 0 0 0 0 0 0 0 0 0 0 0 0 0 0 0 0 0 0 0 0 0 0 0 0 0 0 0 0 0 0 0 0
0 0 0 0 0 0 0 0 0 0 0 0 0 0 0 0 0 0 0 0 0 0 0 0 0 0 0 0 0 0 0 0 0 0 0 0 0 0 0 0 0 0 0
0 0 0 0 0 0 0 0 0 0 0 0 0 0 0 0 0 0 0 0 0 0 0 0 0 0 0 0 0 0 0 0 0 0 0 0 0 0 0 0 0 0 0
0 0 0 0 0 0 0 0 0 0 0 0 0 0 0 0 0 0 0 0 0 0 0 0 0 0 0 0 0 0 0 0 0 0 0 0 0 0 0 0 0 0 0
0 0 0 0 0 0 0 0 0 0 0 0 0 0 0 0 0 0 0 0 0 0 0 0 0 0 0 0 0 0 0 0 0 0 0 0 0 0 0 0 0 0 0
0 0 0 0 0 0 0 0 0 0 0 0 0 0 0 0 0 0 0 0 0 0 0 0 0 0 0 0 0 0 0 0 0 0 0 0 0 0 0 0 0 0 0
0 0 0 0 0 0 0 0 0 0 0 0 0 0 0 0 0 0 0 0 0 0 0 0 0 0 0 0 0 0 0 0 0 0 0 0 0 0 0 0 0 0 0
0 0 0 0 0 0 0 0 0 0 0 0 0 0 0 0 0 0 0 0 0 0 0 0 0 0 0 0 0 0 0 0 0 0 0 0 0 0 0 0 0 0 0
0 0 0 0 0 0 0 0 0 0 0 0 0 0 0 0 0 0 0 0 0 0 0 0 0 0 0 0 0 0 0 0 0 0 0 0 0 0 0 0 0 0 0
0 0 0 0 0 0 0 0 0 0 0 0 0 0 0 0 0 0 0 0 0 0 0 0 0 0 0 0 0 0 0 0 0 0 0 0 0 0 0 0 0 0 0
0 0 0 0 0 0 0 0 0 0 0 0 0 0 0 0 0 0 0 0 0 0 0 0 0 0 0 0 0 0 0 0 0 0 0 0 0 0 0 0 0 0 0
0 0 0 0 0 0 0 0 0 0 0 0 0 0 0 0 0 0 0 0 0 0 0 0 0 0 0 0 0 0 0 0 0 0 0 0 0 0 0 0 0 0 0
0 0 0 0 0 0 0 0 0 0 0 0 0 0 0 0 0 0 0 0 0 0 0 0 0 0 0 0 0 0 0 0 0 0 0 0 0 0 0 0 0 0 0
0 0 0 0 0 0 0 0 0 0 0 0 0 0 0 0 0 0 0 0 0 0 0 0 0 0 0 0 0 0 0 0 0 0 0 0 0 0 0 0 0 0 0
0 0 0 0 0 0 0 0 0 0 0 0 0 0 0 0 0 0 0 0 0 0 0 0 0 0 0 0 0 0 0 0 0 0 0 0 0 0 0 0 0 0 0
0 0 0 0 0 0 0 0 0 0 0 0 0 0 0 0 0 0 0 0 0 0 0 0 0 0 0 0 0 0 0 0 0 0 0 0 0 0 0 0 0 0 0
0 0 0 0 0 0 0 0 0 0 0 0 0 0 0 0 0 0 0 0 0 0 0 0 0 0 0 0 0 0 0 0 0 0 0 0 0 0 0 0 0 0 0
0 0 0 0 0 0 0 0 0 0 0 0 0 0 0 0 0 0 0 0 0 0 0 0 0 0 0 0 0 0 0 0 0 0 0 0 0 0 0 0 0 0 0
Wind_Speed_500mb
19 9 4 10 10 10 14 16 19 21 22 25 28 31 31 33 34 36 37 36 35 35 34 30 26 24 28 30 33 36 35 34 32 29 28 26 26 25 25 27 29 30 30
15 5 5 7 12 12 14 19 22 22 25 28 32 34 36 38 40 41 42 41 38 37 35 30 25 23 25 29 32 33 34 36 36 32 31 30 29 27 26 21 25 32 34
14 6 10 9 15 16 23 28 29 30 33 35 37 39 40 41 42 42 44 44 41 37 30 26 26 26 27 28 30 31 32 34 38 40 35 35 35 32 30 29 22 29 35
12 6 13 13 20 26 27 33 35 38 40 41 43 42 42 42 40 40 39 39 36 33 29 28 28 26 27 28 28 30 31 32 35 45 37 38 40 39 37 36 38 35 31
15 14 14 20 25 29 33 35 39 43 43 42 40 40 39 38 38 37 31 28 35 31 29 29 30 29 30 30 32 33 31 32 36 47 42 42 42 42 42 42 44 46 43
19 16 18 24 27 32 36 40 43 40 38 37 38 37 37 36 34 30 39 38 30 28 27 28 25 25 21 19 21 22 25 31 40 42 43 44 46 45 45 43 42 44 47
22 21 23 28 32 36 39 40 38 36 35 37 35 36 37 38 40 40 39 37 38 38 36 37 37 40 43 41 40 42 42 43 44 41 42 44 45 46 46 44 42 38 38
28 25 24 27 32 37 39 40 36 36 36 38 40 42 43 42 40 39 37 37 38 36 36 35 36 39 40 43 45 46 48 50 51 50 48 46 44 44 45 46 45 42 40
33 28 26 30 35 35 39 37 36 38 41 44 46 45 43 40 38 37 35 35 36 36 38 39 42 45 47 50 51 53 53 55 57 58 58 55 53 50 48 46 45 45 45
35 31 30 33 35 37 39 39 41 41 43 43 43 42 40 38 37 36 36 38 39 42 44 46 49 52 55 57 58 59 62 63 66 65 66 64 62 58 55 55 49 48 49
37 33 32 33 35 40 41 39 39 40 41 41 40 39 37 37 37 38 39 42 45 48 51 53 57 60 62 64 66 67 67 68 69 71 73 68 66 67 66 60 58 54 52
34 33 34 36 37 41 41 40 38 39 39 39 40 40 40 41 42 44 46 48 50 53 55 58 61 65 67 71 72 72 72 73 73 75 77 74 74 72 69 68 64 62 56
35 37 37 38 41 43 42 40 39 39 38 39 41 43 44 45 47 49 52 54 57 61 63 66 68 70 73 75 78 79 78 79 80 79 80 78 80 79 76 73 69 65 61
37 37 38 39 44 43 40 41 40 39 39 41 43 46 48 50 53 56 58 59 62 65 69 72 75 79 81 82 83 84 84 83 83 85 85 82 80 82 78 70 62 59 57
39 38 39 42 44 42 43 42 41 40 40 41 44 47 51 55 59 61 62 64 67 70 74 79 81 83 83 82 80 80 81 82 82 83 84 82 79 77 74 71 64 64 62
33 37 38 41 41 43 42 41 40 40 40 43 47 50 52 55 58 61 64 67 70 74 77 79 80 81 81 81 84 84 84 83 81 80 78 78 77 78 76 65 61 61 59
31 34 37 38 41 41 40 39 39 39 41 44 47 50 52 56 58 62 66 68 71 73 75 76 77 79 82 83 84 85 85 83 82 80 82 82 78 76 74 68 59 55 54
34 35 37 37 38 39 38 38 37 38 42 45 49 51 54 56 60 63 66 69 69 71 73 74 74 77 79 80 83 82 74 71 71 72 75 74 72 71 65 56 43 45 45
36 36 36 36 37 37 36 38 39 41 45 48 50 52 55 58 61 65 67 68 70 71 71 70 70 70 71 76 79 79 80 73 67 74 75 72 59 45 52 59 53 47 46
39 38 37 35 36 37 38 40 40 43 47 50 53 57 57 60 64 67 69 70 70 71 71 69 68 68 69 70 63 70 59 74 72 50 46 47 56 59 60 63 59 59 55
40 39 37 36 37 39 41 41 44 48 52 54 56 57 62 66 69 70 70 71 70 69 69 65 65 68 68 61 72 76 68 27 42 53 41 41 38 55 64 67 68 66 66
36 35 36 37 39 39 40 42 45 52 55 56 57 59 62 65 66 67 68 67 66 66 62 58 56 60 60 60 55 65 34 67 18 32 59 65 62 63 69 75 78 69 70
31 34 38 39 39 38 40 42 48 52 55 58 62 65 64 67 67 67 64 64 60 54 51 49 50 53 62 60 51 31 25 22 76 70 70 56 48 50 52 55 60 64 61
32 36 37 37 37 38 41 47 52 54 58 60 62 65 66 65 64 61 60 57 50 45 46 48 48 50 54 60 58 41 44 54 44 53 43 53 60 60 64 63 70 63 62
29 32 32 32 34 37 43 48 51 55 57 61 65 68 69 67 62 58 55 51 44 46 47 49 51 52 52 53 52 53 48 45 44 45 73 60 67 57 63 60 60 61 74
22 24 27 30 34 39 42 48 52 55 60 66 69 71 69 67 64 61 55 48 46 48 48 51 52 53 55 53 52 47 46 40 44 43 55 59 69 73 69 66 67 65 62
Wind_Direction_500mb
189 205 358 29 34 9 352 342 336 326 319 318 320 322 323 323 322 322 321 320 319 317 318 325 331 336 322 314 304 304 303 300 299 295 290 288 284 279 278 281 277 268 267
194 248 334 9 11 1 347 338 332 324 319 316 317 317 317 315 313 312 311 311 313 314 314 322 333 334 329 319 306 300 299 300 295 290 286 285 283 281 273 265 272 269 270
205 251 335 313 341 331 337 328 321 319 318 315 312 309 308 307 307 308 308 308 309 310 324 334 334 334 331 326 319 307 303 298 292 287 285 283 279 276 271 258 251 275 273
224 276 271 292 319 314 320 315 315 315 313 310 310 312 311 312 312 311 312 314 314 323 334 335 335 333 331 329 330 325 320 320 308 283 283 281 278 275 271 264 258 259 272
229 251 261 307 306 307 304 307 309 310 311 311 312 312 315 313 313 313 326 331 320 332 336 335 334 333 332 330 328 325 322 317 299 288 287 284 281 276 273 271 267 264 266
221 247 273 283 295 297 303 309 311 312 312 312 315 319 315 316 311 309 305 315 316 314 323 328 339 335 310 301 299 303 304 299 298 295 289 287 286 283 279 275 272 270 268
234 246 264 280 292 300 305 309 313 316 316 316 317 315 312 310 309 308 307 306 304 303 304 302 305 300 299 307 309 307 308 307 303 299 294 290 288 285 282 280 276 282 282
243 251 266 284 298 306 314 314 317 313 314 315 317 321 320 319 316 314 312 308 308 309 306 306 304 303 304 304 305 306 305 304 302 302 297 293 291 289 286 283 283 285 281
243 256 274 291 301 305 316 317 315 315 318 321 322 321 322 321 317 314 313 312 309 307 307 307 306 306 305 305 304 302 300 298 297 295 294 293 291 287 284 287 293 290 283
249 260 277 292 299 308 319 318 314 316 315 312 313 315 317 314 313 310 307 305 305 306 306 305 304 303 303 302 302 301 301 299 297 296 293 291 290 288 284 279 286 291 286
252 265 280 290 300 310 312 309 308 307 306 307 309 311 309 307 304 304 302 301 303 302 303 304 304 304 304 303 303 302 300 299 297 296 294 293 290 287 284 284 281 280 286
261 272 282 292 299 305 307 304 302 301 300 301 303 303 303 303 302 301 302 301 300 299 301 302 303 303 303 302 302 299 298 297 295 294 292 292 290 286 284 280 283 280 280
269 274 282 288 297 303 302 300 299 298 300 300 302 302 302 299 297 298 299 301 304 305 304 303 302 303 304 304 304 303 301 300 298 295 292 290 288 286 283 282 280 280 282
272 275 280 290 297 300 302 301 301 300 298 299 300 300 299 300 301 300 301 303 304 305 305 306 307 306 305 304 304 303 301 300 299 298 295 295 290 286 283 285 288 285 280
269 275 279 286 295 299 297 297 298 301 304 304 304 304 305 304 303 304 305 306 308 307 307 307 309 309 307 306 304 303 301 300 298 297 296 294 292 290 288 286 288 286 283
270 269 273 287 294 295 294 296 302 305 306 307 308 308 308 307 306 305 306 306 307 307 308 309 309 309 309 309 308 307 305 303 302 300 297 295 293 291 289 289 288 286 282
266 265 279 288 294 296 296 299 301 303 306 308 309 309 308 308 307 307 308 307 306 307 308 309 311 312 312 312 310 310 309 309 307 307 304 302 299 294 290 287 289 286 285
257 265 274 285 294 294 295 297 300 304 308 310 312 309 308 306 307 308 309 309 311 312 314 315 315 314 314 314 313 313 312 308 306 305 305 307 304 302 295 289 289 287 279
256 264 274 285 291 295 297 295 297 302 310 314 313 312 311 311 312 312 313 315 316 317 319 320 318 319 318 316 314 312 310 310 306 305 303 302 302 291 297 290 289 289 284
252 260 271 282 290 291 293 294 301 311 313 314 315 315 314 314 317 320 320 321 322 321 323 322 321 319 318 320 318 311 307 305 310 309 303 300 296 290 284 282 288 287 290
249 260 271 279 284 288 294 299 301 308 315 317 318 320 322 323 324 324 322 321 321 321 321 322 321 323 323 326 322 321 319 334 310 306 309 295 285 293 295 295 293 298 290
249 260 270 277 283 290 294 300 310 315 317 318 320 319 320 322 322 322 321 321 320 319 320 321 324 323 325 328 325 322 322 313 329 284 293 296 296 290 286 286 288 289 291
249 260 269 275 282 288 295 304 308 311 314 319 321 323 325 324 323 323 322 319 318 317 320 325 328 327 322 325 327 315 318 295 314 310 303 308 313 310 306 298 289 285 281
254 266 272 277 281 289 299 308 314 319 321 323 324 324 324 323 324 323 321 319 318 321 324 327 326 324 325 324 325 316 295 292 307 314 317 311 307 301 288 285 288 286 286
264 270 271 276 284 295 306 314 317 318 321 323 325 324 326 325 325 327 324 319 316 321 323 323 324 327 326 319 318 319 315 307 298 295 302 316 315 312 303 302 300 294 276
273 273 276 284 292 305 313 316 318 324 327 328 326 325 326 328 329 330 325 318 317 319 320 321 322 325 325 320 317 314 307 307 306 303 298 305 307 312 309 313 285 289 299
Wind_Speed_850mb
19 9 4 10 10 10 14 16 19 21 22 25 28 31 31 33 34 36 37 36 35 35 34 30 26 24 28 30 33 36 35 34 32 29 28 26 26 25 25 27 29 30 30
15 5 5 7 12 12 14 19 22 22 25 28 32 34 36 38 40 41 42 41 38 37 35 30 25 23 25 29 32 33 34 36 36 32 31 30 29 27 26 21 25 32 34
14 6 10 9 15 16 23 28 29 30 33 35 37 39 40 41 42 42 44 44 41 37 30 26 26 26 27 28 30 31 32 34 38 40 35 35 35 32 30 29 22 29 35
12 6 13 13 20 26 27 33 35 38 40 41 43 42 42 42 40 40 39 39 36 33 29 28 28 26 27 28 28 30 31 32 35 45 37 38 40 39 37 36 38 35 31
15 14 14 20 25 29 33 35 39 43 43 42 40 40 39 38 38 37 31 28 35 31 29 29 30 29 30 30 32 33 31 32 36 47 42 42 42 42 42 42 44 46 43
19 16 18 24 27 32 36 40 43 40 38 37 38 37 37 36 34 30 39 38 30 28 27 28 25 25 21 19 21 22 25 31 40 42 43 44 46 45 45 43 42 44 47
22 21 23 28 32 36 39 40 38 36 35 37 35 36 37 38 40 40 39 37 38 38 36 37 37 40 43 41 40 42 42 43 44 41 42 44 45 46 46 44 42 38 38
28 25 24 27 32 37 39 40 36 36 36 38 40 42 43 42 40 39 37 37 38 36 36 35 36 39 40 43 45 46 48 50 51 50 48 46 44 44 45 46 45 42 40
33 28 26 30 35 35 39 37 36 38 41 44 46 45 43 40 38 37 35 35 36 36 38 39 42 45 47 50 51 53 53 55 57 58 58 55 53 50 48 46 45 45 45
35 31 30 33 35 37 39 39 41 41 43 43 43 42 40 38 37 36 36 38 39 42 44 46 49 52 55 57 58 59 62 63 66 65 66 64 62 58 55 55 49 48 49
37 33 32 33 35 40 41 39 39 40 41 41 40 39 37 37 37 38 39 42 45 48 51 53 57 60 62 64 66 67 67 68 69 71 73 68 66 67 66 60 58 54 52
34 33 34 36 37 41 41 40 38 39 39 39 40 40 40 41 42 44 46 48 50 53 55 58 61 65 67 71 72 72 72 73 73 75 77 74 74 72 69 68 64 62 56
35 37 37 38 41 43 42 40 39 39 38 39 41 43 44 45 47 49 52 54 57 61 63 66 68 70 73 75 78 79 78 79 80 79 80 78 80 79 76 73 69 65 61
37 37 38 39 44 43 40 41 40 39 39 41 43 46 48 50 53 56 58 59 62 65 69 72 75 79 81 82 83 84 84 83 83 85 85 82 80 82 78 70 62 59 57
39 38 39 42 44 42 43 42 41 40 40 41 44 47 51 55 59 61 62 64 67 70 74 79 81 83 83 82 80 80 81 82 82 83 84 82 79 77 74 71 64 64 62
33 37 38 41 41 43 42 41 40 40 40 43 47 50 52 55 58 61 64 67 70 74 77 79 80 81 81 81 84 84 84 83 81 80 78 78 77 78 76 65 61 61 59
31 34 37 38 41 41 40 39 39 39 41 44 47 50 52 56 58 62 66 68 71 73 75 76 77 79 82 83 84 85 85 83 82 80 82 82 78 76 74 68 59 55 54
34 35 37 37 38 39 38 38 37 38 42 45 49 51 54 56 60 63 66 69 69 71 73 74 74 77 79 80 83 82 74 71 71 72 75 74 72 71 65 56 43 45 45
36 36 36 36 37 37 36 38 39 41 45 48 50 52 55 58 61 65 67 68 70 71 71 70 70 70 71 76 79 79 80 73 67 74 75 72 59 45 52 59 53 47 46
39 38 37 35 36 37 38 40 40 43 47 50 53 57 57 60 64 67 69 70 70 71 71 69 68 68 69 70 63 70 59 74 72 50 46 47 56 59 60 63 59 59 55
40 39 37 36 37 39 41 41 44 48 52 54 56 57 62 66 69 70 70 71 70 69 69 65 65 68 68 61 72 76 68 27 42 53 41 41 38 55 64 67 68 66 66
36 35 36 37 39 39 40 42 45 52 55 56 57 59 62 65 66 67 68 67 66 66 62 58 56 60 60 60 55 65 34 67 18 32 59 65 62 63 69 75 78 69 70
31 34 38 39 39 38 40 42 48 52 55 58 62 65 64 67 67 67 64 64 60 54 51 49 50 53 62 60 51 31 25 22 76 70 70 56 48 50 52 55 60 64 61
32 36 37 37 37 38 41 47 52 54 58 60 62 65 66 65 64 61 60 57 50 45 46 48 48 50 54 60 58 41 44 54 44 53 43 53 60 60 64 63 70 63 62
29 32 32 32 34 37 43 48 51 55 57 61 65 68 69 67 62 58 55 51 44 46 47 49 51 52 52 53 52 53 48 45 44 45 73 60 67 57 63 60 60 61 74
22 24 27 30 34 39 42 48 52 55 60 66 69 71 69 67 64 61 55 48 46 48 48 51 52 53 55 53 52 47 46 40 44 43 55 59 69 73 69 66 67 65 62
Wind_Direction_850mb
189 205 358 29 34 9 352 342 336 326 319 318 320 322 323 323 322 322 321 320 319 317 318 325 331 336 322 314 304 304 303 300 299 295 290 288 284 279 278 281 277 268 267
194 248 334 9 11 1 347 338 332 324 319 316 317 317 317 315 313 312 311 311 313 314 314 322 333 334 329 319 306 300 299 300 295 290 286 285 283 281 273 265 272 269 270
205 251 335 313 341 331 337 328 321 319 318 315 312 309 308 307 307 308 308 308 309 310 324 334 334 334 331 326 319 307 303 298 292 287 285 283 279 276 271 258 251 275 273
224 276 271 292 319 314 320 315 315 315 313 310 310 312 311 312 312 311 312 314 314 323 334 335 335 333 331 329 330 325 320 320 308 283 283 281 278 275 271 264 258 259 272
229 251 261 307 306 307 304 307 309 310 311 311 312 312 315 313 313 313 326 331 320 332 336 335 334 333 332 330 328 325 322 317 299 288 287 284 281 276 273 271 267 264 266
221 247 273 283 295 297 303 309 311 312 312 312 315 319 315 316 311 309 305 315 316 314 323 328 339 335 310 301 299 303 304 299 298 295 289 287 286 283 279 275 272 270 268
234 246 264 280 292 300 305 309 313 316 316 316 317 315 312 310 309 308 307 306 304 303 304 302 305 300 299 307 309 307 308 307 303 299 294 290 288 285 282 280 276 282 282
243 251 266 284 298 306 314 314 317 313 314 315 317 321 320 319 316 314 312 308 308 309 306 306 304 303 304 304 305 306 305 304 302 302 297 293 291 289 286 283 283 285 281
243 256 274 291 301 305 316 317 315 315 318 321 322 321 322 321 317 314 313 312 309 307 307 307 306 306 305 305 304 302 300 298 297 295 294 293 291 287 284 287 293 290 283
249 260 277 292 299 308 319 318 314 316 315 312 313 315 317 314 313 310 307 305 305 306 306 305 304 303 303 302 302 301 301 299 297 296 293 291 290 288 284 279 286 291 286
252 265 280 290 300 310 312 309 308 307 306 307 309 311 309 307 304 304 302 301 303 302 303 304 304 304 304 303 303 302 300 299 297 296 294 293 290 287 284 284 281 280 286
261 272 282 292 299 305 307 304 302 301 300 301 303 303 303 303 302 301 302 301 300 299 301 302 303 303 303 302 302 299 298 297 295 294 292 292 290 286 284 280 283 280 280
269 274 282 288 297 303 302 300 299 298 300 300 302 302 302 299 297 298 299 301 304 305 304 303 302 303 304 304 304 303 301 300 298 295 292 290 288 286 283 282 280 280 282
272 275 280 290 297 300 302 301 301 300 298 299 300 300 299 300 301 300 301 303 304 305 305 306 307 306 305 304 304 303 301 300 299 298 295 295 290 286 283 285 288 285 280
269 275 279 286 295 299 297 297 298 301 304 304 304 304 305 304 303 304 305 306 308 307 307 307 309 309 307 306 304 303 301 300 298 297 296 294 292 290 288 286 288 286 283
270 269 273 287 294 295 294 296 302 305 306 307 308 308 308 307 306 305 306 306 307 307 308 309 309 309 309 309 308 307 305 303 302 300 297 295 293 291 289 289 288 286 282
266 265 279 288 294 296 296 299 301 303 306 308 309 309 308 308 307 307 308 307 306 307 308 309 311 312 312 312 310 310 309 309 307 307 304 302 299 294 290 287 289 286 285
257 265 274 285 294 294 295 297 300 304 308 310 312 309 308 306 307 308 309 309 311 312 314 315 315 314 314 314 313 313 312 308 306 305 305 307 304 302 295 289 289 287 279
256 264 274 285 291 295 297 295 297 302 310 314 313 312 311 311 312 312 313 315 316 317 319 320 318 319 318 316 314 312 310 310 306 305 303 302 302 291 297 290 289 289 284
252 260 271 282 290 291 293 294 301 311 313 314 315 315 314 314 317 320 320 321 322 321 323 322 321 319 318 320 318 311 307 305 310 309 303 300 296 290 284 282 288 287 290
249 260 271 279 284 288 294 299 301 308 315 317 318 320 322 323 324 324 322 321 321 321 321 322 321 323 323 326 322 321 319 334 310 306 309 295 285 293 295 295 293 298 290
249 260 270 277 283 290 294 300 310 315 317 318 320 319 320 322 322 322 321 321 320 319 320 321 324 323 325 328 325 322 322 313 329 284 293 296 296 290 286 286 288 289 291
249 260 269 275 282 288 295 304 308 311 314 319 321 323 325 324 323 323 322 319 318 317 320 325 328 327 322 325 327 315 318 295 314 310 303 308 313 310 306 298 289 285 281
254 266 272 277 281 289 299 308 314 319 321 323 324 324 324 323 324 323 321 319 318 321 324 327 326 324 325 324 325 316 295 292 307 314 317 311 307 301 288 285 288 286 286
264 270 271 276 284 295 306 314 317 318 321 323 325 324 326 325 325 327 324 319 316 321 323 323 324 327 326 319 318 319 315 307 298 295 302 316 315 312 303 302 300 294 276
273 273 276 284 292 305 313 316 318 324 327 328 326 325 326 328 329 330 325 318 317 319 320 321 322 325 325 320 317 314 307 307 306 303 298 305 307 312 309 313 285 289 299